SCP
0 0 0 0 0 0 0 0 0 0 0 0 0 0 0 0 0 0 0 0 0 0 0 0 0 0 0 0 0 0 0 0 0 0 0 0 0 0 0 0 0 0 0
0 0 0 0 0 0 0 0 0 0 0 0 0 0 0 0 0 0 0 0 0 0 0 0 0 0 0 0 0 0 0 0 0 0 0 0 0 0 0 0 0 0 0
0 0 0 0 0 0 0 0 0 0 0 0 0 0 0 0 0 0 0 0 0 0 0 0 0 0 0 0 0 0 0 0 0 0 0 0 0 0 0 0 0 0 0
0 0 0 0 0 0 0 0 0 0 0 0 0 0 0 0 0 0 0 0 0 0 0 0 0 0 0 0 0 0 0 0 0 0 0 0 0 0 0 0 0 0 0
0 0 0 0 0 0 0 0 0 0 0 0 0 0 0 0 0 0 0 0 0 0 0 0 0 0 0 0 0 0 0 0 0 0 0 0 0 0 0 0 0 0 0
0 0 0 0 0 0 0 0 0 0 0 0 0 0 0 0 0 0 0 0 0 0 0 0 0 0 0 0 0 0 0 0 0 0 0 0 0 0 0 0 0 0 0
0 0 0 0 0 0 0 0 0 0 0 0 0 0 0 0 0 0 0 0 0 0 0 0 0 0 0 0 0 0 0 0 0 0 0 0 0 0 0 0 0 0 0
0 0 0 0 0 0 0 0 0 0 0 0 0 0 0 0 0 0 0 0 0 0 0 0 0 0 0 0 0 0 0 0 0 0 0 0 0 0 0 0 0 0 0
0 0 0 0 0 0 0 0 0 0 0 0 0 0 0 0 0 0 0 0 0 0 0 0 0 0 0 0 0 0 0 0 0 0 0 0 0 0 0 0 0 0 0
0 0 0 0 0 0 0 0 0 0 0 0 0 0 0 0 0 0 0 0 0 0 0 0 0 0 0 0 0 0 0 0 0 0 0 0 0 0 0 0 0 0 0
0 0 0 0 0 0 0 0 0 0 0 0 0 0 0 0 0 0 0 0 0 0 0 0 0 0 0 0 0 0 0 0 0 0 0 0 0 0 0 0 0 0 0
0 0 0 0 0 0 0 0 0 0 0 0 0 0 0 0 0 0 0 0 0 0 0 0 0 0 0 0 0 0 0 0 0 0 0 0 0 0 0 0 0 0 0
0 0 0 0 0 0 0 0 0 0 0 0 0 0 0 0 0 0 0 0 0 0 0 0 0 0 0 0 0 0 0 0 0 0 0 0 0 0 0 0 0 0 0
0 0 0 0 0 0 0 0 0 0 0 0 0 0 0 0 0 0 0 0 0 0 0 0 0 0 0 0 0 0 0 0 0 0 0 0 0 0 0 0 0 0 0
0 0 0 0 0 0 0 0 0 0 0 0 0 0 0 0 0 0 0 0 0 0 0 0 0 0 0 0 0 0 0 0 0 0 0 0 0 0 0 0 0 0 0
0 0 0 0 0 0 0 0 0 1 0 0 0 0 0 0 0 0 0 0 0 0 0 0 0 0 0 0 0 0 0 0 0 0 0 0 0 0 0 0 0 0 0
0 0 0 0 0 0 0 0 0 0 0 0 0 0 0 0 0 0 0 0 0 1 1 0 0 0 0 0 0 0 0 0 0 0 0 0 0 0 0 0 0 0 0
0 0 0 0 0 0 0 0 0 0 0 0 0 0 0 0 0 0 0 0 0 1 1 0 0 0 0 0 0 0 0 0 0 0 0 0 0 0 0 0 0 0 0
0 0 0 0 0 0 0 0 0 0 0 0 0 0 0 0 0 0 0 0 0 1 1 0 0 0 0 0 0 0 0 0 0 0 0 0 0 0 0 0 0 0 0
0 0 0 0 0 0 0 0 0 0 0 0 0 0 0 0 0 0 0 0 0 0 0 0 0 0 0 0 0 0 0 0 0 0 0 0 0 0 0 0 0 0 0
0 0 0 0 0 0 0 0 0 0 0 0 0 0 0 0 0 0 0 0 0 0 0 0 0 0 0 0 0 0 0 0 0 0 0 0 0 0 0 0 0 0 0
0 0 0 0 0 0 0 0 0 0 0 0 0 0 0 0 0 0 0 0 0 0 0 0 0 0 0 0 0 0 0 0 0 0 0 0 0 0 0 0 0 0 0
0 0 0 0 0 0 0 0 0 0 0 0 0 0 0 0 0 0 0 0 0 0 0 0 0 0 0 0 0 0 0 0 0 0 0 0 0 0 0 0 0 0 0
0 0 0 0 0 0 0 0 0 0 0 0 0 0 0 0 0 0 0 0 0 0 0 0 0 0 0 0 0 0 0 0 0 0 0 0 0 0 0 0 0 0 0
0 0 0 0 0 0 0 0 0 0 0 0 0 0 0 0 0 0 0 0 0 0 0 0 0 0 0 0 0 0 0 0 0 0 0 0 0 0 0 0 0 0 0
0 0 0 0 0 0 0 0 0 0 0 0 0 0 0 0 0 0 0 0 0 0 0 0 0 0 0 0 0 0 0 0 0 0 0 0 0 0 0 0 0 0 0
Wind_Speed
3 3 3 3 3 3 3 3 2 2 2 2 2 2 2 2 3 2 2 6 7 6 6 6 6 6 6 6 6 6 7 8 8 8 8 9 9 9 9 9 9 8 8
4 4 3 3 3 3 3 3 3 3 2 1 1 2 2 3 3 3 2 3 6 6 5 5 5 5 5 5 6 6 6 6 7 7 8 8 9 9 9 9 9 9 8
4 4 3 3 3 3 3 3 3 2 2 2 2 1 2 2 3 3 2 1 2 4 5 5 4 4 5 5 5 5 6 6 6 6 7 7 8 8 9 9 10 9 8
4 4 3 3 3 3 3 3 2 2 2 2 2 1 1 2 3 3 2 2 1 1 2 3 3 3 3 4 5 5 5 6 6 6 6 7 7 8 8 8 9 9 9
4 4 3 2 3 3 2 3 2 2 2 2 2 2 1 1 2 3 2 2 2 1 1 2 3 2 2 3 4 4 5 5 5 5 6 7 7 7 8 8 8 8 8
4 3 3 3 3 3 2 2 3 2 2 2 2 2 1 1 1 1 2 2 2 2 1 1 1 2 2 2 3 4 5 5 5 5 5 6 7 7 8 8 8 8 8
3 3 3 3 3 3 3 3 3 3 2 2 3 2 2 2 1 1 1 1 2 2 2 2 1 1 1 3 3 4 4 5 5 5 6 5 6 6 7 8 8 8 8
3 4 4 3 3 3 3 3 3 2 1 2 3 2 1 2 3 2 1 1 1 1 1 2 1 1 1 1 1 3 4 4 4 5 5 5 5 6 7 7 8 8 8
3 3 4 3 3 3 3 3 4 4 3 1 2 4 3 2 0 2 1 1 1 1 1 1 1 1 1 1 1 2 3 2 3 4 5 5 5 5 6 7 7 7 7
3 3 3 4 3 3 3 3 3 3 4 2 1 1 3 4 3 1 2 1 0 1 1 1 1 1 1 1 0 1 2 3 2 3 3 3 3 4 5 6 8 8 8
1 2 2 2 3 2 3 3 3 3 3 3 2 1 1 1 2 3 1 1 1 1 1 1 1 0 0 0 1 2 3 3 2 2 2 2 2 2 3 5 6 7 8
1 1 3 2 2 2 3 3 2 3 2 2 2 2 2 2 2 3 3 2 1 1 1 0 0 1 0 0 1 2 3 3 3 2 2 2 2 2 1 1 3 5 6
1 2 2 2 2 2 3 3 2 2 2 2 2 2 2 2 2 3 3 2 1 1 1 1 1 1 1 1 0 2 2 3 3 3 3 3 3 3 2 2 2 1 2
2 2 3 3 3 3 3 3 2 2 2 2 2 2 1 1 2 3 4 4 2 1 1 1 1 1 1 1 2 2 1 3 3 3 3 3 3 3 3 3 3 3 2
2 2 3 3 2 2 2 3 2 2 2 2 1 1 1 1 2 2 3 4 4 3 2 2 1 2 1 1 2 2 2 3 4 4 3 3 3 3 3 3 4 4 4
2 3 2 3 2 2 2 2 2 2 2 1 1 1 1 1 1 1 2 2 3 4 2 2 2 2 2 2 3 2 2 3 4 4 4 3 3 3 3 3 3 3 3
3 3 3 3 3 2 2 2 2 2 2 1 1 1 1 1 1 1 1 1 2 2 3 1 1 1 2 2 2 2 1 1 2 4 5 4 4 3 3 3 2 2 2
3 3 3 3 3 3 3 3 2 2 2 2 1 1 1 1 1 1 1 1 1 2 3 2 1 1 2 3 2 2 2 2 2 3 4 4 4 3 3 3 2 2 1
3 3 4 4 3 3 3 2 2 2 2 2 2 2 1 2 1 1 1 1 1 1 2 2 2 1 1 2 2 1 1 1 2 3 4 5 5 4 3 3 2 2 2
4 4 4 4 3 3 3 3 2 2 2 1 1 1 1 2 2 2 2 2 2 2 2 2 1 1 1 1 2 2 1 1 2 1 2 3 4 4 4 4 4 3 3
4 4 4 3 3 3 3 3 3 3 2 1 0 1 1 2 2 2 2 2 3 2 2 2 1 1 1 1 2 2 2 1 1 1 1 1 1 1 2 4 5 4 4
3 3 3 3 3 2 4 5 4 3 2 2 1 0 1 1 1 1 2 3 4 4 4 3 2 3 3 3 2 3 2 1 2 2 2 2 1 2 2 2 4 6 6
3 3 3 3 3 3 5 6 5 3 2 2 2 1 1 1 1 1 1 0 1 3 5 5 4 4 4 4 4 4 3 3 4 3 2 2 1 2 3 3 6 6 6
3 3 3 3 3 3 6 6 5 3 2 2 2 2 2 1 1 1 1 1 1 1 2 3 4 4 4 3 4 5 4 2 1 1 2 2 2 2 2 2 4 6 6
4 3 3 3 3 3 5 5 4 2 2 2 1 2 3 2 2 2 2 1 1 2 2 1 2 3 3 3 3 2 2 2 1 2 2 2 2 1 1 2 3 5 6
4 4 3 3 4 3 4 5 5 3 2 1 1 1 3 3 3 3 3 2 2 3 1 1 2 2 1 2 3 4 4 4 2 2 2 2 2 2 1 2 2 2 3
Wind_Direction
143 141 141 144 149 144 145 146 149 147 147 153 155 150 149 150 143 143 163 168 164 161 168 168 171 176 178 180 187 192 196 199 199 200 203 203 201 198 193 192 192 190 189
137 131 130 136 141 145 148 150 151 144 140 125 117 114 118 126 121 125 128 155 155 158 165 168 178 183 184 187 193 195 196 196 201 201 203 204 202 200 200 198 197 196 195
134 134 132 135 143 146 145 135 130 126 132 124 106 101 112 129 133 133 137 131 157 166 168 173 177 183 193 196 198 202 204 205 207 201 201 203 202 200 200 201 201 201 201
137 129 130 139 141 135 132 129 127 123 120 121 118 114 112 124 135 142 144 143 147 172 186 175 173 178 193 203 204 205 207 206 204 199 204 207 206 200 198 200 201 201 204
140 136 142 144 138 128 133 148 133 134 130 128 121 105 95 117 139 148 146 152 158 147 152 173 179 183 205 219 216 212 204 196 197 203 210 212 209 202 199 200 203 202 202
145 137 140 142 140 131 133 137 132 123 133 137 117 87 69 90 106 133 158 156 149 154 165 184 213 225 227 242 235 224 210 201 201 204 207 216 218 211 208 204 203 203 203
148 142 144 139 141 145 156 148 131 127 128 128 103 64 27 33 56 49 147 142 158 184 167 172 193 221 247 246 237 227 221 216 207 203 204 214 222 217 211 210 209 205 203
155 150 143 141 143 140 142 145 144 140 159 146 131 114 52 8 6 13 54 123 153 161 157 182 197 204 229 237 230 216 221 221 211 208 211 219 223 221 218 215 213 208 206
142 142 145 147 147 148 161 162 159 155 167 193 164 147 153 190 297 356 9 59 117 131 155 167 180 208 207 224 229 214 200 195 208 215 223 228 225 220 217 216 215 210 209
143 147 145 150 154 157 164 174 167 163 160 186 209 182 167 157 153 152 340 334 305 155 196 191 196 210 215 213 176 151 171 159 170 201 218 223 221 219 217 220 222 216 213
137 144 147 154 159 163 169 175 168 158 164 177 184 171 145 143 143 149 197 287 330 296 226 205 184 190 207 207 185 118 131 137 143 161 174 184 195 206 217 224 225 219 219
139 163 152 158 166 173 173 177 173 158 162 169 180 172 162 159 170 157 173 203 230 273 258 227 201 215 196 86 136 110 127 126 125 122 117 112 116 119 141 216 227 223 224
180 200 173 168 179 194 183 172 168 162 162 170 181 184 180 185 166 150 150 171 196 265 303 307 247 214 178 165 173 116 138 144 145 132 118 112 103 89 80 69 70 122 221
189 185 167 174 191 190 177 165 164 168 164 183 187 171 172 188 162 162 160 155 156 284 292 267 305 227 203 186 193 189 202 160 147 137 129 124 113 100 87 79 74 64 58
175 173 161 165 174 173 162 159 160 168 164 177 184 166 180 203 176 173 166 164 162 181 234 234 225 243 225 196 185 184 184 153 149 146 142 141 135 118 102 89 80 73 65
164 153 151 150 153 153 151 144 144 153 154 174 166 147 179 202 168 169 171 173 164 167 193 218 209 214 210 190 171 172 177 151 157 160 157 153 145 133 120 105 92 79 70
159 159 158 146 138 131 127 124 129 133 145 159 168 156 189 171 152 155 158 155 158 152 169 231 209 189 180 183 168 177 174 176 181 179 173 161 153 149 140 128 107 91 85
168 163 148 138 137 131 126 131 142 134 144 154 164 144 182 157 131 152 149 160 168 161 156 185 214 191 197 194 186 185 185 178 193 189 186 177 178 176 162 146 130 116 109
157 143 136 140 141 138 134 137 144 148 152 162 163 163 187 146 163 180 168 164 172 149 141 162 202 203 198 186 165 189 183 200 211 198 190 192 195 191 178 164 163 154 150
146 142 138 142 142 137 133 134 138 138 135 140 156 164 180 173 189 186 179 169 153 134 130 149 177 187 195 197 150 177 210 253 239 226 206 194 192 201 202 199 200 196 188
149 144 135 135 140 139 145 146 152 150 138 127 138 184 188 168 169 180 178 178 162 157 155 161 170 171 205 180 202 197 196 220 271 230 200 218 197 219 226 223 220 214 203
137 132 139 145 151 158 161 165 160 153 155 157 175 249 219 156 141 137 168 184 174 171 180 178 191 197 217 209 197 187 173 167 258 238 166 241 190 229 241 227 220 213 210
141 141 155 154 161 179 174 170 169 158 167 185 184 187 198 129 102 84 73 132 193 191 185 184 195 212 207 206 189 190 188 192 215 212 158 242 222 234 243 226 214 212 210
158 161 171 174 171 192 181 175 168 157 168 193 193 182 169 165 195 156 130 55 8 276 220 194 197 215 218 215 200 196 195 190 260 223 158 199 233 235 241 237 229 220 215
167 172 173 173 173 197 188 177 160 146 165 203 213 190 176 184 212 168 138 149 309 300 291 217 209 226 230 219 193 159 164 160 223 248 198 178 210 225 263 260 249 229 223
174 164 162 175 177 191 194 179 166 157 172 198 216 217 201 200 211 186 178 187 227 257 270 316 321 319 298 259 205 186 185 180 186 236 219 174 192 152 256 269 248 236 227